Regional Weather Roundup
Issued by NWS

Home | Current Version | Previous Version | Text Only | Print | Product List | Glossary Off
Versions: 1 2 3 4 5 6 7 8 9 10 11 12 13 14 15 16 17 18 19 20 21 22 23 24 25 26 27 28 29 30 31 32 33 34 35 36 37 38 39 40 41 42 43 44 45 46 47 48 49 50

000
ASUS43 KDTX 300810
RWRMI
MICHIGAN HOURLY REGIONAL WEATHER ROUNDUP
NATIONAL WEATHER SERVICE DETROIT/PONTIAC MI
400 AM EDT SAT APR 30 2016

NOTE: "FAIR" INDICATES FEW OR NO CLOUDS BELOW 12,000 FEET WITH NO
SIGNIFICANT WEATHER AND/OR OBSTRUCTION TO VISIBILITY.

MIZ047>049-052>055-059>063-066>070-074>076-081>083-300900-
SOUTHEAST LOWER MICHIGAN

CITY           SKY/WX    TMP DP  RH WIND       PRES   REMARKS
ADRIAN         CLOUDY    46  41  82 E7        30.12F
ALMA           CLEAR     34  34  99 CALM      30.16S
ANN ARBOR      CLOUDY    45  38  76 E3        30.14F
BAD AXE        CLEAR     31  28  90 CALM      30.19R
CARO           CLEAR     31  29  94 CALM      30.17R
DETROIT CITY   PTCLDY    42  32  67 CALM      30.16S
DETROIT        CLOUDY    46  34  62 CALM      30.16F
FLINT          PTCLDY    39  32  76 CALM      30.17R
GROSSE ILE     CLOUDY    45  41  87 N3        30.15S
HILLSDALE      CLOUDY    45  40  81 E6        30.10F
HOWELL         CLOUDY    38  35  89 CALM      30.15F

CITY           SKY/WX    TMP DP  RH WIND       PRES   REMARKS
JACKSON        CLOUDY    47  36  65 E8        30.11F
LAMBERTVILLE   PTCLDY    42  39  87 CALM      30.13F
LANSING        CLEAR     38  35  89 E5        30.15F WCI  34
LAPEER         CLOUDY    37  35  94 CALM      30.16S
MASON          CLEAR     38  35  90 E3        30.13F
MONROE         CLOUDY    44  41  90 NE3       30.14F
MT. CLEMENS    CLOUDY    43  32  64 N3        30.15F
PONTIAC        CLOUDY    44  33  65 E3        30.14S
PORT HOPE        N/A     37  33  85 N3        30.17R
PORT HURON     CLOUDY    43  32  65 CALM      30.17R
TRI CITIES     CLEAR     38  33  82 NE3       30.18R
MIDLAND        FAIR      32  32  99 S3        30.17R
TROY           CLOUDY    46  29  51 NE3       30.17F
SAGINAW HB     CLEAR     34  32  93 NE5       30.17R WCI  30
$$
MIZ043>046-050>051-056>058-064>065-071>073-077>080-300900-
SOUTHWEST LOWER MICHIGAN

CITY           SKY/WX    TMP DP  RH WIND       PRES   REMARKS
BATTLE CREEK   CLOUDY    47  39  74 E6        30.11F
BENTON HARBOR  CLOUDY    45  39  79 E5        30.08F
BIG RAPIDS     CLOUDY    34  31  90 CALM      30.16R
COLDWATER      CLOUDY    46  38  73 E9        30.10F
FREMONT        FAIR      37  37 100 CALM      30.15S
HOLLAND        CLEAR     42  38  85 NE6       30.12F
GRAND RAPIDS   CLEAR     40  36  86 NE7       30.13F
IONIA          FAIR      38  36  92 E5        30.13F WCI  35
KALAMAZOO      CLOUDY    49  40  71 E3        30.10F
LUDINGTON      CLEAR     32  32 100 CALM      30.17R FOG
MARSHALL       CLOUDY    46  39  76 CALM      30.10F
MOUNT PLEASANT CLEAR     35  34  96 CALM      30.16S
MUSKEGON       CLEAR     41  36  82 NE8       30.14F
SOUTH HAVEN    CLEAR     42  40  91 NE3       30.09F
$$
MIZ016>042-300900-
NORTHERN LOWER MICHIGAN

CITY           SKY/WX    TMP DP  RH WIND       PRES   REMARKS
ALPENA         CLEAR     30  27  88 CALM      30.20S
BEAVER ISLAND  CLEAR     34  31  88 CALM      30.20R
BELLAIRE       CLEAR     34  32  92 CALM      30.19R
CADILLAC       CLEAR     31  29  92 CALM      30.16R
CHARLEVOIX     CLEAR     39  30  71 SE3       30.22R
FRANKFORT      CLEAR     37  33  85 CALM      30.17R
GAYLORD        CLEAR     38  29  70 CALM      30.17S
GRAYLING       CLEAR     28  27  93 CALM      30.19R
HARBOR SPRINGS CLEAR     35  29  77 NE5       30.19S WCI  31
HOUGHTON LAKE  CLEAR     33  31  92 CALM      30.18R
MANISTEE       CLEAR     30  27  86 E3        30.17S
OSCODA         CLEAR     29  24  82 CALM      30.18F
PELLSTON       CLEAR     28  26  92 CALM      30.20R
ROGERS CITY    CLEAR     29  27  90 CALM      30.20S
TRAVERSE CITY  CLEAR     35  31  85 CALM      30.17R
$$
MIZ007>008-015-300900-
EASTERN UPPER MICHIGAN

CITY           SKY/WX    TMP DP  RH WIND       PRES   REMARKS
KINROSS          N/A     36  30  80 CALM      30.19S
MACKINAC ISLAN CLEAR     36  28  72 CALM      30.20R
NEWBERRY       PTCLDY    30  29  96 CALM      30.19R
S. S. MARIE    PTCLDY    35  30  82 CALM      30.19R
MUNISING         N/A     33  30  88 MISG      30.22R
$$
MIZ004>006-011>014-085-300900-
CENTRAL UPPER MICHIGAN

CITY           SKY/WX    TMP DP  RH WIND       PRES   REMARKS
MANISTIQUE     PTCLDY    34  31  87 CALM      30.21R
ESCANABA       CLOUDY    39  30  70 N3        30.21R
MENOMINEE      CLOUDY    39  28  65 CALM      30.19S
SAWYER-GWINN   CLEAR     29  26  86 N3        30.19S
$$
MIZ001>003-009>011-084-300900-
WESTERN UPPER MICHIGAN

CITY           SKY/WX    TMP DP  RH WIND       PRES   REMARKS
IRON MOUNTAIN  CLOUDY    38  28  67 N7        30.19R WCI  33
HOUGHTON       MOCLDY    39  29  67 NE5       30.23R
COPPER HARBOR    N/A     36  34  92 CALM      30.24R
IRONWOOD         N/A     34  34 100 E3        30.20F
$$

ABBREVIATIONS USED IN REMARKS
   TC - TEMPERATURE IN CELSIUS
  WCI - WIND CHILL INDEX
   HX - HEAT INDEX
  VSB - VISIBILITY





USA.gov is the U.S. government's official web portal to all federal, state and local government web resources and services.